When you browse on this site, cookies collect data to enhance your experience and personalize the content and advertising you see.
Visit our Privacy Policy to learn more. By continuing to use the site, you agree to this use of cookies and data.
  • In Deutschland
  • Länderverzeichnis
  • Für 7 Tage
  • Wassertemperatur
  • Wetterkarte
  • Widgets
  • user-avatar
    Anmelden

    Stündliche Wetter Leknes

    Heute, 3 April, Freitag

    Zeit Temperatur Niederschläge Wind Luftdruck Luftfeuchtigkeit
    00:00 -8°C° 0.2 mm 9 m/S 713 mmHg 66%
    01:00 -7°C° 0.2 mm 8 m/S 713 mmHg 68%
    02:00 -7°C° 0.3 mm 8 m/S 713 mmHg 71%
    03:00 -8°C° 0.3 mm 8 m/S 713 mmHg 75%
    04:00 -8°C° 0.3 mm 8 m/S 714 mmHg 78%
    05:00 -8°C° 0.4 mm 8 m/S 714 mmHg 78%
    06:00 -7°C° 0.4 mm 7 m/S 715 mmHg 77%
    07:00 -7°C° 0.4 mm 7 m/S 715 mmHg 76%
    08:00 -7°C° 0.3 mm 7 m/S 716 mmHg 76%
    09:00 -7°C° 0.3 mm 8 m/S 716 mmHg 75%
    10:00 -7°C° 0.3 mm 8 m/S 716 mmHg 75%
    11:00 -7°C° 0.2 mm 8 m/S 717 mmHg 71%
    12:00 -7°C° 0.2 mm 8 m/S 718 mmHg 68%
    13:00 -7°C° 0.2 mm 8 m/S 718 mmHg 64%
    14:00 -7°C° 0.2 mm 7 m/S 719 mmHg 64%
    15:00 -7°C° 0.2 mm 7 m/S 719 mmHg 64%
    16:00 -7°C° 0.2 mm 7 m/S 720 mmHg 64%
    17:00 -8°C° 0.1 mm 6 m/S 720 mmHg 64%
    18:00 -8°C° 0.1 mm 6 m/S 721 mmHg 64%
    19:00 -8°C° 0.1 mm 5 m/S 721 mmHg 65%
    20:00 -8°C° 0.2 mm 5 m/S 722 mmHg 66%
    21:00 -8°C° 0.2 mm 4 m/S 722 mmHg 67%
    22:00 -7°C° 0.2 mm 3 m/S 723 mmHg 68%
    23:00 -8°C° 0.3 mm 3 m/S 723 mmHg 74%

    Morgen, 4 April, Samstag

    Zeit Temperatur Niederschläge Wind Luftdruck Luftfeuchtigkeit
    00:00 -9°C° 0.3 mm 4 m/S 724 mmHg 80%
    01:00 -9°C° 0.3 mm 4 m/S 724 mmHg 85%
    02:00 -9°C° 0.4 mm 4 m/S 725 mmHg 84%
    03:00 -10°C° 0.4 mm 5 m/S 725 mmHg 83%
    04:00 -10°C° 0.4 mm 6 m/S 726 mmHg 82%
    05:00 -11°C° 0.4 mm 7 m/S 726 mmHg 79%
    06:00 -9°C° 0.4 mm 7 m/S 727 mmHg 75%
    07:00 -10°C° 0.4 mm 8 m/S 727 mmHg 71%
    08:00 -10°C° 0.2 mm 8 m/S 728 mmHg 70%
    09:00 -8°C° 0.2 mm 8 m/S 729 mmHg 70%
    10:00 -8°C° 0.2 mm 8 m/S 730 mmHg 69%
    11:00 -8°C° 0.2 mm 8 m/S 730 mmHg 67%
    12:00 -8°C° 0.2 mm 8 m/S 731 mmHg 64%
    13:00 -8°C° 0.2 mm 7 m/S 732 mmHg 62%
    14:00 -8°C° 0.2 mm 8 m/S 733 mmHg 63%
    15:00 -8°C° 0.2 mm 8 m/S 734 mmHg 64%
    16:00 -8°C° 0.2 mm 8 m/S 734 mmHg 65%
    17:00 -10°C° 0.1 mm 9 m/S 735 mmHg 64%
    18:00 -10°C° 0.1 mm 9 m/S 735 mmHg 62%
    19:00 -10°C° 0.1 mm 9 m/S 736 mmHg 60%
    20:00 -10°C° 0.1 mm 9 m/S 737 mmHg 63%
    21:00 -11°C° 0.1 mm 9 m/S 737 mmHg 66%
    22:00 -11°C° 0.1 mm 9 m/S 738 mmHg 69%
    23:00 -11°C° 0.1 mm 9 m/S 738 mmHg 68%

    übermorgen, 5 April, Sonntag

    Zeit Temperatur Niederschläge Wind Luftdruck Luftfeuchtigkeit
    00:00 -11°C° 0.1 mm 9 m/S 739 mmHg 68%
    01:00 -11°C° 0.1 mm 8 m/S 739 mmHg 68%
    02:00 -11°C° 0.1 mm 8 m/S 739 mmHg 68%
    03:00 -11°C° 0.1 mm 7 m/S 740 mmHg 68%
    04:00 -10°C° 0.1 mm 6 m/S 740 mmHg 68%
    05:00 -9°C° 0.1 mm 6 m/S 740 mmHg 69%
    06:00 -8°C° 0.1 mm 5 m/S 740 mmHg 70%
    07:00 -8°C° 0.1 mm 5 m/S 740 mmHg 71%
    08:00 -7°C° 0 mm 5 m/S 740 mmHg 72%
    09:00 -7°C° 0 mm 5 m/S 740 mmHg 74%
    10:00 -6°C° 0 mm 5 m/S 740 mmHg 75%
    11:00 -6°C° 0 mm 6 m/S 739 mmHg 70%
    12:00 -7°C° 0 mm 7 m/S 739 mmHg 66%
    13:00 -7°C° 0 mm 7 m/S 738 mmHg 61%
    14:00 -7°C° 0 mm 8 m/S 737 mmHg 62%
    15:00 -7°C° 0 mm 8 m/S 737 mmHg 64%
    16:00 -7°C° 0 mm 8 m/S 736 mmHg 65%
    17:00 -8°C° 0.3 mm 9 m/S 735 mmHg 71%
    18:00 -8°C° 0.3 mm 10 m/S 734 mmHg 78%
    19:00 -9°C° 0.3 mm 11 m/S 733 mmHg 84%
    20:00 -8°C° 1.6 mm 12 m/S 732 mmHg 88%
    21:00 -9°C° 1.6 mm 13 m/S 732 mmHg 93%
    22:00 -7°C° 1.6 mm 13 m/S 731 mmHg 97%
    23:00 -6°C° 1.3 mm 14 m/S 731 mmHg 98%

    6 April, Montag

    Zeit Temperatur Niederschläge Wind Luftdruck Luftfeuchtigkeit
    00:00 -5°C° 1.3 mm 14 m/S 730 mmHg 98%
    01:00 -3°C° 1.3 mm 15 m/S 730 mmHg 98%
    02:00 -2°C° 0 mm 14 m/S 730 mmHg 94%
    03:00 -2°C° 0 mm 13 m/S 730 mmHg 89%
    04:00 -1°C° 0 mm 12 m/S 729 mmHg 85%
    05:00 -1°C° 0.4 mm 13 m/S 729 mmHg 88%
    06:00 -1°C° 0.4 mm 14 m/S 729 mmHg 91%
    07:00 -1°C° 0.4 mm 15 m/S 728 mmHg 94%
    08:00 -1°C° 0.5 mm 15 m/S 728 mmHg 94%
    09:00 -1°C° 0.5 mm 14 m/S 728 mmHg 95%
    10:00 -1°C° 0.5 mm 14 m/S 728 mmHg 96%
    11:00 -1°C° 0.5 mm 13 m/S 728 mmHg 95%
    12:00 -2°C° 0.5 mm 12 m/S 727 mmHg 95%
    13:00 -2°C° 0.5 mm 11 m/S 727 mmHg 95%
    14:00 -1°C° 0.1 mm 11 m/S 727 mmHg 94%
    15:00 -1°C° 0.1 mm 11 m/S 727 mmHg 93%
    16:00 0°C° 0.1 mm 10 m/S 727 mmHg 92%
    17:00 0°C° 0.1 mm 10 m/S 726 mmHg 92%
    18:00 0°C° 0.1 mm 10 m/S 726 mmHg 92%
    19:00 +1°C° 0.1 mm 9 m/S 725 mmHg 91%
    20:00 +1°C° 0.4 mm 9 m/S 725 mmHg 90%
    21:00 +1°C° 0.4 mm 8 m/S 725 mmHg 89%
    22:00 +2°C° 0.4 mm 7 m/S 724 mmHg 88%
    23:00 +1°C° 0.2 mm 11 m/S 724 mmHg 86%

    7 April, Dienstag

    Zeit Temperatur Niederschläge Wind Luftdruck Luftfeuchtigkeit
    00:00 0°C° 0.2 mm 14 m/S 724 mmHg 85%
    01:00 -1°C° 0.2 mm 18 m/S 724 mmHg 84%
    02:00 -1°C° 0 mm 18 m/S 724 mmHg 81%
    03:00 -2°C° 0 mm 18 m/S 724 mmHg 79%
    04:00 -2°C° 0 mm 18 m/S 724 mmHg 77%
    05:00 -3°C° 0.1 mm 19 m/S 724 mmHg 78%
    06:00 -3°C° 0.1 mm 20 m/S 724 mmHg 80%
    07:00 -5°C° 0.1 mm 21 m/S 724 mmHg 81%
    08:00 -4°C° 0.2 mm 21 m/S 723 mmHg 74%
    09:00 -4°C° 0.2 mm 21 m/S 723 mmHg 67%
    10:00 -4°C° 0.2 mm 22 m/S 723 mmHg 60%
    11:00 -4°C° 0.2 mm 22 m/S 723 mmHg 62%
    12:00 -5°C° 0.2 mm 22 m/S 723 mmHg 64%
    13:00 -5°C° 0.2 mm 22 m/S 723 mmHg 65%
    14:00 -6°C° 0.3 mm 23 m/S 722 mmHg 73%
    15:00 -8°C° 0.3 mm 24 m/S 721 mmHg 80%
    16:00 -8°C° 0.3 mm 25 m/S 720 mmHg 88%
    17:00 -6°C° 1.2 mm 23 m/S 720 mmHg 88%
    18:00 -4°C° 1.2 mm 21 m/S 720 mmHg 89%
    19:00 -1°C° 1.2 mm 20 m/S 721 mmHg 89%
    20:00 -2°C° 0.3 mm 21 m/S 723 mmHg 89%
    21:00 -4°C° 0.3 mm 21 m/S 726 mmHg 89%
    22:00 -5°C° 0.3 mm 22 m/S 729 mmHg 89%
    23:00 -6°C° 0.1 mm 21 m/S 731 mmHg 87%

    8 April, Mittwoch

    Zeit Temperatur Niederschläge Wind Luftdruck Luftfeuchtigkeit
    00:00 -6°C° 0.1 mm 20 m/S 733 mmHg 84%
    01:00 -7°C° 0.1 mm 19 m/S 735 mmHg 81%
    02:00 -6°C° 0 mm 17 m/S 736 mmHg 79%
    03:00 -5°C° 0 mm 15 m/S 737 mmHg 77%
    04:00 -5°C° 0 mm 14 m/S 739 mmHg 76%
    05:00 -5°C° 0.1 mm 12 m/S 739 mmHg 81%
    06:00 -3°C° 0.1 mm 10 m/S 739 mmHg 87%
    07:00 -2°C° 0.1 mm 8 m/S 739 mmHg 93%
    08:00 -3°C° 0.3 mm 10 m/S 738 mmHg 94%
    09:00 -2°C° 0.3 mm 12 m/S 738 mmHg 96%
    10:00 -2°C° 0.3 mm 14 m/S 737 mmHg 97%
    11:00 -2°C° 0.4 mm 16 m/S 736 mmHg 96%
    12:00 -2°C° 0.4 mm 18 m/S 735 mmHg 94%
    13:00 -2°C° 0.4 mm 19 m/S 734 mmHg 93%
    14:00 -2°C° 1.3 mm 19 m/S 734 mmHg 93%
    15:00 -1°C° 1.3 mm 19 m/S 734 mmHg 94%
    16:00 -1°C° 1.3 mm 19 m/S 733 mmHg 94%
    17:00 -2°C° 0.6 mm 17 m/S 733 mmHg 91%
    18:00 -1°C° 0.6 mm 14 m/S 733 mmHg 89%
    19:00 -1°C° 0.6 mm 12 m/S 733 mmHg 87%
    20:00 -1°C° 0.8 mm 11 m/S 732 mmHg 90%
    21:00 -1°C° 0.8 mm 11 m/S 732 mmHg 93%
    22:00 -2°C° 0.8 mm 11 m/S 732 mmHg 96%
    23:00 -2°C° 0.9 mm 11 m/S 732 mmHg 94%
    Mehr zeigen